Location: Vancouver
(49.2500°N, 123.1330°W)
Time: 03:17:17
(UTC-08:00)

SO-67 - Visible Passes

Search period start: 22 February 2017 00:00
Search period end: 04 March 2017 00:00
Orbit: 408 x 413 km, 97.1° (Epoch: 22 February)

Date Brightness Start Highest point End Pass type
(mag) Time Alt. Az. Time Alt. Az. Time Alt. Az.
22 Feb ? 18:47:30 10° SSW 18:50:18 29° W 18:53:09 10° NNW visible
24 Feb ? 18:45:32 10° SSW 18:48:23 31° W 18:51:15 10° NNW visible
26 Feb ? 18:43:31 10° SSW 18:46:24 32° W 18:49:19 10° NNW visible
28 Feb ? 18:41:28 10° SSW 18:44:23 34° W 18:47:19 10° NNW visible
01 Mar ? 19:29:07 10° W 19:29:39 10° W 19:30:12 10° W visible
02 Mar ? 18:39:21 10° SSW 18:42:18 37° W 18:45:17 10° NNW visible
03 Mar ? 19:26:37 10° WSW 19:27:33 11° W 19:28:28 10° WNW visible
